TimeEDT,TemperatureF,Dew PointF,Humidity,Sea Level PressureIn,VisibilityMPH,Wind Direction,Wind SpeedMPH,Gust SpeedMPH,PrecipitationIn,Events,Conditions,WindDirDegrees,DateUTC
12:05 AM,51.8,51.8,100,29.88,0.8,Calm,Calm,-,N/A,,Overcast,0,2012-10-19 04:05:00
12:27 AM,51.8,51.8,100,29.87,0.2,NW,3.5,-,N/A,,Overcast,310,2012-10-19 04:27:00
12:48 AM,51.8,51.8,100,29.86,0.2,Calm,Calm,-,N/A,,Overcast,0,2012-10-19 04:48:00
1:09 AM,51.8,51.8,100,29.85,0.2,Calm,Calm,-,N/A,,Overcast,0,2012-10-19 05:09:00
1:31 AM,51.8,51.8,100,29.86,0.2,Calm,Calm,-,N/A,,Overcast,0,2012-10-19 05:31:00
1:52 AM,51.8,51.8,100,29.85,2.5,Calm,Calm,-,N/A,,Mostly Cloudy,0,2012-10-19 05:52:00
2:13 AM,51.8,51.8,100,29.85,4.0,Calm,Calm,-,N/A,,Mostly Cloudy,0,2012-10-19 06:13:00
2:35 AM,51.8,51.8,100,29.85,7.0,Calm,Calm,-,N/A,,Mostly Cloudy,0,2012-10-19 06:35:00
2:56 AM,51.8,51.8,100,29.84,10.0,NE,4.6,-,N/A,,Overcast,40,2012-10-19 06:56:00
3:17 AM,51.8,51.8,100,29.84,7.0,Calm,Calm,-,N/A,,Overcast,0,2012-10-19 07:17:00
3:38 AM,51.8,51.8,100,29.83,10.0,North,3.5,-,N/A,,Mostly Cloudy,350,2012-10-19 07:38:00
4:00 AM,51.8,51.8,100,29.83,10.0,NNE,3.5,-,N/A,,Scattered Clouds,20,2012-10-19 08:00:00
4:21 AM,50.0,50.0,100,29.82,7.0,Calm,Calm,-,N/A,,Mostly Cloudy,0,2012-10-19 08:21:00
4:42 AM,50.0,50.0,100,29.82,7.0,NNW,3.5,-,N/A,,Overcast,330,2012-10-19 08:42:00
5:04 AM,51.8,51.8,100,29.83,10.0,Calm,Calm,-,N/A,,Overcast,0,2012-10-19 09:04:00
5:25 AM,51.8,51.8,100,29.84,7.0,Calm,Calm,-,N/A,,Overcast,0,2012-10-19 09:25:00
5:46 AM,51.8,51.8,100,29.82,5.0,Calm,Calm,-,N/A,,Mostly Cloudy,0,2012-10-19 09:46:00
6:08 AM,50.0,50.0,100,29.83,5.0,Calm,Calm,-,N/A,,Mostly Cloudy,0,2012-10-19 10:08:00
6:29 AM,50.0,50.0,100,29.82,3.0,Calm,Calm,-,N/A,,Overcast,0,2012-10-19 10:29:00
6:50 AM,50.0,50.0,100,29.81,5.0,NNE,3.5,-,N/A,,Mostly Cloudy,20,2012-10-19 10:50:00
7:12 AM,50.0,50.0,100,29.81,7.0,Calm,Calm,-,N/A,,Clear,0,2012-10-19 11:12:00
7:33 AM,50.0,50.0,100,29.82,7.0,Calm,Calm,-,N/A,,Scattered Clouds,0,2012-10-19 11:33:00
7:54 AM,50.0,50.0,100,29.82,3.0,East,4.6,-,N/A,,Overcast,90,2012-10-19 11:54:00
8:15 AM,50.0,50.0,100,29.82,1.5,East,3.5,-,N/A,,Overcast,80,2012-10-19 12:15:00
8:37 AM,50.0,50.0,100,29.82,3.0,Calm,Calm,-,N/A,,Scattered Clouds,0,2012-10-19 12:37:00
8:58 AM,51.8,51.8,100,29.82,3.0,Calm,Calm,-,N/A,,Overcast,0,2012-10-19 12:58:00
9:19 AM,51.8,51.8,100,29.81,4.0,Calm,Calm,-,N/A,,Mostly Cloudy,0,2012-10-19 13:19:00
9:40 AM,51.8,51.8,100,29.81,5.0,Calm,Calm,-,N/A,,Overcast,0,2012-10-19 13:40:00
10:02 AM,51.8,51.8,100,29.82,7.0,Calm,Calm,-,N/A,,Overcast,0,2012-10-19 14:02:00
10:23 AM,53.6,53.6,100,29.81,10.0,Calm,Calm,-,N/A,,Overcast,0,2012-10-19 14:23:00
10:44 AM,53.6,53.6,100,29.81,10.0,Calm,Calm,-,N/A,,Overcast,0,2012-10-19 14:44:00
11:05 AM,53.6,53.6,100,29.80,10.0,Calm,Calm,-,N/A,,Overcast,0,2012-10-19 15:05:00
11:27 AM,55.4,53.6,94,29.80,10.0,Calm,Calm,-,N/A,,Overcast,0,2012-10-19 15:27:00
11:48 AM,55.4,53.6,94,29.79,10.0,Calm,Calm,-,N/A,,Mostly Cloudy,0,2012-10-19 15:48:00
12:09 PM,60.8,53.6,77,29.78,10.0,East,3.5,-,N/A,,Mostly Cloudy,90,2012-10-19 16:09:00
12:30 PM,59.0,51.8,77,29.77,10.0,ENE,3.5,-,N/A,,Mostly Cloudy,60,2012-10-19 16:30:00
12:52 PM,60.8,53.6,77,29.76,10.0,East,3.5,-,N/A,,Mostly Cloudy,90,2012-10-19 16:52:00
1:13 PM,62.6,51.8,68,29.75,10.0,SSW,3.5,-,N/A,,Scattered Clouds,200,2012-10-19 17:13:00
1:34 PM,62.6,53.6,72,29.74,10.0,Calm,Calm,-,N/A,,Clear,0,2012-10-19 17:34:00
1:55 PM,62.6,53.6,72,29.73,10.0,Calm,Calm,-,N/A,,Scattered Clouds,0,2012-10-19 17:55:00
2:17 PM,62.6,53.6,72,29.72,10.0,Calm,Calm,-,N/A,,Scattered Clouds,0,2012-10-19 18:17:00
2:38 PM,64.4,53.6,68,29.70,10.0,East,4.6,-,N/A,,Clear,100,2012-10-19 18:38:00
2:59 PM,64.4,51.8,64,29.69,10.0,Calm,Calm,-,N/A,,Clear,0,2012-10-19 18:59:00
3:20 PM,66.2,51.8,60,29.68,10.0,South,3.5,-,N/A,,Clear,170,2012-10-19 19:20:00
3:42 PM,68.0,50.0,52,29.68,10.0,SSW,4.6,-,N/A,,Clear,200,2012-10-19 19:42:00
4:03 PM,68.0,48.2,49,29.67,10.0,Calm,Calm,-,N/A,,Clear,0,2012-10-19 20:03:00
4:24 PM,68.0,50.0,52,29.66,10.0,Calm,Calm,-,N/A,,Clear,0,2012-10-19 20:24:00
4:45 PM,68.0,50.0,52,29.65,10.0,Calm,Calm,-,N/A,,Clear,0,2012-10-19 20:45:00
5:07 PM,68.0,50.0,52,29.65,10.0,Calm,Calm,-,N/A,,Clear,0,2012-10-19 21:07:00
5:28 PM,66.2,50.0,56,29.65,10.0,ESE,3.5,-,N/A,,Clear,110,2012-10-19 21:28:00
5:49 PM,66.2,51.8,60,29.65,10.0,Calm,Calm,-,N/A,,Scattered Clouds,0,2012-10-19 21:49:00
6:10 PM,64.4,51.8,64,29.65,10.0,Calm,Calm,-,N/A,,Clear,0,2012-10-19 22:10:00
6:32 PM,62.6,51.8,68,29.65,10.0,Calm,Calm,-,N/A,,Scattered Clouds,0,2012-10-19 22:32:00
6:53 PM,62.6,51.8,68,29.66,10.0,Calm,Calm,-,N/A,,Scattered Clouds,0,2012-10-19 22:53:00
7:14 PM,60.8,51.8,72,29.66,10.0,Calm,Calm,-,N/A,,Scattered Clouds,0,2012-10-19 23:14:00
7:35 PM,59.0,51.8,77,29.67,10.0,Calm,Calm,-,N/A,,Mostly Cloudy,0,2012-10-19 23:35:00
7:57 PM,59.0,51.8,77,29.67,10.0,Calm,Calm,-,N/A,,Scattered Clouds,0,2012-10-19 23:57:00
8:18 PM,59.0,51.8,77,29.67,10.0,Calm,Calm,-,N/A,,Scattered Clouds,0,2012-10-20 00:18:00
8:39 PM,57.2,51.8,82,29.68,10.0,Calm,Calm,-,N/A,,Scattered Clouds,0,2012-10-20 00:39:00
9:00 PM,57.2,51.8,82,29.69,10.0,Calm,Calm,-,N/A,,Mostly Cloudy,0,2012-10-20 01:00:00
9:22 PM,55.4,53.6,94,29.69,10.0,East,3.5,-,N/A,,Scattered Clouds,100,2012-10-20 01:22:00
10:04 PM,53.6,51.8,94,29.70,10.0,East,4.6,-,N/A,,Clear,80,2012-10-20 02:04:00
10:25 PM,51.8,51.8,100,29.70,10.0,Calm,Calm,-,N/A,,Clear,0,2012-10-20 02:25:00
11:51 PM,57.2,41.0,55,29.74,10.0,SW,3.5,-,N/A,,Clear,230,2012-10-20 03:51:00